This demonstration page uses our WeatherBlox Daily Observations layout. Learn more.

Left ArrowRight Arrow

Hourly Observations for June 8, 2017

Temp ( °F °C ) Dew Point ( °F °C ) Humidity (%) Winds ( mph kmh ) Pressure ( in mb ) Visibility ( mi km ) Precip ( " mm )
12:51 am 00:51 Clear 73 22.8 56 13.3 55 55 E 5 7 29.87 1012 10 16 N/A
1:51 am 01:51 Clear 70 21.1 59 15 68 68 NE 7 11 29.85 1011 10 16 N/A
2:51 am 02:51 Clear 70 21.1 59 15 68 68 ENE 7 11 29.84 1010 10 16 N/A
3:51 am 03:51 Clear 68 20 57 13.9 68 68 VRB 7 11 29.85 1011 10 16 N/A
4:51 am 04:51 Clear 66 18.9 57 13.9 73 73 N 5 7 29.86 1011 10 16 N/A
5:51 am 05:51 Sunny 65 18.3 57 13.9 76 76 E 5 7 29.88 1012 10 16 N/A
6:51 am 06:51 Sunny 73 22.8 54 12.2 51 51 SE 12 19 29.90 1013 10 16 N/A
7:51 am 07:51 Sunny 79 26.1 53 11.7 41 41 SE 9 15 29.91 1013 10 16 N/A
8:51 am 08:51 Sunny 82 27.8 53 11.7 37 37 SSE 7 11 29.89 1012 10 16 N/A
9:51 am 09:51 Sunny 85 29.4 51 10.6 31 31 SSW 3 6 29.88 1012 10 16 N/A
10:51 am 10:51 Sunny 88 31.1 50 10 27 27 S 7 11 29.86 1011 10 16 N/A
11:51 am 11:51 Sunny 93 33.9 47 8.3 21 21 W 8 13 29.83 1010 10 16 N/A
12:51 pm 12:51 Sunny 95 35 44 6.7 17 17 VRB 7 11 29.79 1009 10 16 N/A
1:51 pm 13:51 Sunny 98 36.7 42 5.6 15 15 W 10 17 29.76 1008 10 16 N/A
2:51 pm 14:51 Sunny 99 37.2 42 5.6 14 14 WNW 15 24 29.72 1006 10 16 N/A
3:51 pm 15:51 Sunny 100 37.8 40 4.4 13 13 WSW 15 24 29.68 1005 10 16 N/A
4:51 pm 16:51 Sunny 100 37.8 32 undefined 9 9 NNW 16 26 29.67 1005 10 16 N/A
5:51 pm 17:51 Sunny 98 36.7 32 undefined 10 10 WNW 18 30 29.67 1005 10 16 N/A
6:51 pm 18:51 Sunny 94 34.4 31 -0.6 11 11 WNW 18 30 29.69 1006 10 16 N/A
7:51 pm 19:51 Clear 90 32.2 32 undefined 13 13 WNW 14 22 29.70 1006 10 16 N/A
8:51 pm 20:51 Clear 87 30.6 30 -1.1 13 13 NW 14 22 29.72 1007 10 16 N/A
9:51 pm 21:51 Clear 86 30 28 -2.2 12 12 NW 13 20 29.74 1007 10 16 N/A
10:51 pm 22:51 Clear 80 26.7 29 -1.7 15 15 WNW 8 13 29.75 1007 10 16 N/A
11:51 pm 23:51 Clear 75 23.9 30 -1.1 19 19 NNE 7 11 29.75 1008 10 16 N/A

Powered by AerisWeather